This is the latest recevied weather packets stored in our database for station/object K6CED. If no packets are shown the sender has not sent any weather packets the latest 10 day(s).
| Time | Temp. | Humidity | Pressure | Rain* | Wind** | Luminosity | Snow |
|---|---|---|---|---|---|---|---|
| 1777819805 | 13.33° C | 99% | 1015.9 hPa | 0 mm | - | 84 W/m² | - |
| 1777819503 | 13.33° C | 99% | 1015.8 hPa | 0 mm | - | 77 W/m² | - |
| 1777819200 | 13.33° C | 99% | 1015.8 hPa | 0 mm | - | 66 W/m² | - |
| 1777818897 | 13.33° C | 99% | 1015.8 hPa | 0 mm | - | 72 W/m² | - |
| 1777818593 | 13.33° C | 99% | 1015.8 hPa | 0 mm | - | 66 W/m² | - |
| 1777818290 | 12.78° C | 99% | 1015.8 hPa | 0 mm | - | 62 W/m² | - |
| 1777817986 | 12.78° C | 99% | 1015.8 hPa | 0 mm | - | 55 W/m² | - |
| 1777817684 | 12.78° C | 99% | 1015.9 hPa | 0 mm | - | 49 W/m² | - |
| 1777817381 | 12.78° C | 99% | 1015.9 hPa | 0 mm | - | 41 W/m² | - |
| 1777817077 | 12.78° C | 99% | 1015.8 hPa | 0 mm | - | 39 W/m² | - |
| 1777816774 | 12.78° C | 99% | 1015.7 hPa | 0 mm | - | 32 W/m² | - |
| 1777816472 | 13.33° C | 99% | 1015.7 hPa | 0 mm | - | 30 W/m² | - |
| 1777816169 | 12.78° C | 99% | 1015.8 hPa | 0.51 mm | - | 22 W/m² | - |
| 1777815867 | 13.33° C | 99% | 1015.8 hPa | 0.51 mm | - | 16 W/m² | - |
| 1777815564 | 13.33° C | 99% | 1015.7 hPa | 0 mm | - | 15 W/m² | - |
| 1777815261 | 13.33° C | 99% | 1015.6 hPa | 0 mm | - | 11 W/m² | - |
| 1777814957 | 13.33° C | 99% | 1015.7 hPa | 0 mm | - | 7 W/m² | - |
| 1777814654 | 13.33° C | 99% | 1015.8 hPa | 0 mm | - | 5 W/m² | - |
| 1777814350 | 13.33° C | 99% | 1015.4 hPa | 0.51 mm | - | 4 W/m² | - |
| 1777814048 | 13.33° C | 99% | 1015.5 hPa | 0.51 mm | - | 2 W/m² | - |
| 1777813745 | 13.89° C | 99% | 1015.3 hPa | 0 mm | - | 2 W/m² | - |
| 1777813442 | 13.33° C | 99% | 1015.2 hPa | 0 mm | - | 1 W/m² | - |
| 1777813139 | 13.33° C | 99% | 1014.7 hPa | 0 mm | - | 1 W/m² | - |
| 1777812837 | 13.33° C | 99% | 1015 hPa | 0 mm | - | 0 W/m² | - |
| 1777812533 | 13.89° C | 99% | 1014.7 hPa | 0 mm | - | 0 W/m² | - |
* Rain latest hour (hover to see other rain measurements)
** Current wind speed in m/s (hover to see current wind gust speed)